Weather History for KPSX - October, 2012

Change the Weather History Date:

Thursday, October 18, 2012

  Actual Average Record
Temperature  
Mean Temperature 76 °F -  
Max Temperature 84 °F 80 °F 89 °F (1947)
Min Temperature 71 °F 61 °F 44 °F (1955)
Cooling Degree Days 12    
Growing Degree Days 26 (Base 50)    
Moisture  
Dew Point 69 °F    
Average Humidity 75    
Maximum Humidity 94    
Minimum Humidity 42    
Precipitation  
Precipitation 0.00 in - - ()
Sea Level Pressure  
Sea Level Pressure 29.81 in    
Wind  
Wind Speed 7 mph (NE)    
Max Wind Speed 18 mph    
Max Gust Speed 24 mph    
Visibility 6 miles    
Events      
Averages and records for this station are not official NWS values.
T = Trace of Precipitation, MM = Missing Value Source: NWS Daily Summary

Daily Weather History Graph

Daily Weather History Graph

Search for Another Location

Airport or City:

Trip Planner

Search our weather history database for the weather conditions in past years. The results will help you decide how hot, cold, wet, or windy it might be!

Date:

Astronomy

Oct. 18, 2012 Rise Set
Actual Time 7:28 AM CDT 6:51 PM CDT
Civil Twilight 7:04 AM CDT 7:15 PM CDT
Nautical Twilight 6:36 AM CDT 7:42 PM CDT
Astronomical Twilight 6:09 AM CDT 8:10 PM CDT
Moon 10:54 AM CDT (10/18) 9:43 PM CDT (10/18)
Length of Visible Light 12h 11m
Length of Day
11h 23m
Waxing Crescent, 14% of the Moon is Illuminated
Oct 18
Waxing Crescent
Oct 21
First Quarter
Oct 29
Full
Nov 6
Last Quarter
Nov 13
New

Hourly Weather History & Observations

Time (CDT) Temp. Heat Index Dew Point Humidity Pressure Visibility Wind Dir Wind Speed Gust Speed Precip Events Conditions
12:53 AM 80.1 °F 85.4 °F 75.9 °F 87% 29.72 in 6.0 mi South 6.9 mph - N/A   Clear
1:53 AM 80.1 °F 85.4 °F 75.9 °F 87% 29.72 in 5.0 mi SSW 4.6 mph - N/A   Clear
2:42 AM 80.6 °F 86.2 °F 75.2 °F 84% 29.73 in 5.0 mi SSW 4.6 mph - N/A   Scattered Clouds
2:51 AM 80.6 °F 86.2 °F 75.2 °F 84% 29.72 in 5.0 mi SSW 4.6 mph - N/A   Mostly Cloudy
2:53 AM 80.1 °F 85.4 °F 75.9 °F 87% 29.73 in 5.0 mi SSW 4.6 mph - N/A   Mostly Cloudy
3:53 AM 79.0 °F - 75.9 °F 90% 29.72 in 4.0 mi Calm Calm - N/A   Overcast
4:53 AM 79.0 °F - 75.9 °F 90% 29.72 in 3.0 mi South 4.6 mph - N/A   Overcast
5:01 AM 78.8 °F - 75.2 °F 89% 29.72 in 2.5 mi South 3.5 mph - N/A   Overcast
5:08 AM 77.0 °F - 75.2 °F 94% 29.72 in 0.8 mi South 3.5 mph - N/A   Overcast
5:36 AM 78.8 °F - 75.2 °F 89% 29.73 in 2.0 mi SSW 3.5 mph - N/A   Overcast
5:50 AM 78.8 °F - 75.2 °F 89% 29.75 in 1.5 mi North 8.1 mph - N/A   Overcast
5:53 AM 78.1 °F - 75.0 °F 90% 29.75 in 2.0 mi North 9.2 mph - N/A   Overcast
6:16 AM 78.8 °F - 75.2 °F 89% 29.77 in 3.0 mi North 9.2 mph - N/A   Overcast
6:29 AM 77.0 °F - 75.2 °F 94% 29.77 in 2.5 mi NNE 6.9 mph - N/A   Overcast
6:39 AM 77.0 °F - 75.2 °F 94% 29.78 in 3.0 mi NNE 6.9 mph - N/A   Overcast
6:53 AM 77.0 °F - 75.0 °F 94% 29.78 in 3.0 mi NE 5.8 mph - N/A   Overcast
7:27 AM 78.8 °F - 75.2 °F 89% 29.78 in 3.0 mi NE 5.8 mph - N/A   Overcast
7:43 AM 78.8 °F - 75.2 °F 89% 29.78 in 2.5 mi NE 4.6 mph - N/A   Overcast
7:53 AM 77.0 °F - 75.0 °F 94% 29.79 in 2.0 mi ENE 3.5 mph - N/A   Overcast
8:07 AM 78.8 °F - 75.2 °F 89% 29.79 in 2.0 mi ENE 5.8 mph - N/A   Overcast
8:17 AM 78.8 °F - 75.2 °F 89% 29.80 in 2.5 mi ENE 4.6 mph - N/A   Overcast
8:53 AM 78.1 °F - 75.0 °F 90% 29.81 in 2.5 mi NE 9.2 mph - N/A   Overcast
9:01 AM 78.8 °F - 75.2 °F 89% 29.82 in 3.0 mi NNE 8.1 mph - N/A   Overcast
9:53 AM 78.1 °F - 73.9 °F 87% 29.84 in 3.0 mi NNE 10.4 mph - N/A   Overcast
10:41 AM 77.0 °F - 71.6 °F 83% 29.86 in 6.0 mi NNE 13.8 mph - N/A   Haze
10:53 AM 77.0 °F - 70.0 °F 79% 29.86 in 6.0 mi NE 13.8 mph - N/A   Haze
11:20 AM 77.0 °F - 66.2 °F 69% 29.87 in 7.0 mi NE 17.3 mph 21.9 mph N/A   Overcast
11:53 AM 79.0 °F - 63.0 °F 58% 29.87 in 10.0 mi NE 13.8 mph 24.2 mph N/A   Overcast
12:53 PM 81.0 °F 81.6 °F 60.1 °F 49% 29.87 in 10.0 mi ENE 16.1 mph - N/A   Overcast
1:46 PM 82.4 °F 82.0 °F 57.2 °F 42% 29.84 in 10.0 mi ENE 18.4 mph - N/A   Overcast
1:53 PM 82.0 °F 82.0 °F 57.9 °F 44% 29.84 in 10.0 mi NE 17.3 mph - N/A   Mostly Cloudy
2:24 PM 80.6 °F 80.8 °F 57.2 °F 45% 29.83 in 10.0 mi NE 13.8 mph - N/A   Overcast
2:53 PM 82.9 °F 82.8 °F 59.0 °F 44% 29.83 in 10.0 mi ENE 16.1 mph - N/A   Mostly Cloudy
3:53 PM 82.0 °F 82.0 °F 57.9 °F 44% 29.83 in 10.0 mi ENE 12.7 mph - N/A   Mostly Cloudy
4:53 PM 82.0 °F 82.1 °F 59.0 °F 45% 29.84 in 10.0 mi NE 11.5 mph - N/A   Overcast
5:53 PM 79.0 °F - 57.0 °F 47% 29.85 in 10.0 mi NNE 9.2 mph - N/A   Overcast
6:53 PM 77.0 °F - 57.0 °F 50% 29.86 in 10.0 mi ENE 9.2 mph - N/A   Overcast
7:53 PM 73.0 °F - 59.0 °F 61% 29.89 in 10.0 mi NNE 6.9 mph - N/A   Mostly Cloudy
8:53 PM 73.9 °F - 57.9 °F 57% 29.91 in 10.0 mi NNE 5.8 mph - N/A   Overcast
9:53 PM 71.1 °F - 57.9 °F 63% 29.92 in 10.0 mi NNE 5.8 mph - N/A   Mostly Cloudy
10:53 PM 71.1 °F - 57.0 °F 61% 29.93 in 10.0 mi NNE 8.1 mph - N/A   Mostly Cloudy
11:53 PM 71.1 °F - 57.9 °F 63% 29.94 in 10.0 mi NNE 6.9 mph - N/A   Overcast